Weather History for West Plains, MO

Change the Weather History Date:

Monday, April 22, 2013

  Actual Average Record
Temperature  
Mean Temperature 54 °F 59 °F  
Max Temperature 70 °F 72 °F 91 °F (1955)
Min Temperature 37 °F 47 °F 29 °F (1993)
Degree Days  
Heating Degree Days 11 7  
Month to date heating degree days 231 208  
Since 1 July heating degree days 4277 4218  
Cooling Degree Days 0 1  
Month to date cooling degree days 15 17  
Year to date cooling degree days 15 21  
Growing Degree Days 3 (Base 50)    
Moisture  
Dew Point 37 °F    
Average Humidity 58    
Maximum Humidity 92    
Minimum Humidity 24    
Precipitation  
Precipitation 0.00 in 0.16 in 4.35 in (1973)
Month to date precipitation 2.92 3.17  
Year to date precipitation 13.99 13.02  
Sea Level Pressure  
Sea Level Pressure 30.11 in    
Wind  
Wind Speed 7 mph (SE)    
Max Wind Speed 18 mph    
Max Gust Speed 23 mph    
Visibility 10 miles    
Events      
T = Trace of Precipitation, MM = Missing Value Source: NWS Daily Summary

Daily Weather History Graph

Daily Weather History Graph

Search for Another Location

Airport:

Trip Planner

Search our weather history database for the weather conditions in past years. The results will help you decide how hot, cold, wet, or windy it might be!

Date:

Astronomy

Apr. 22, 2013 Rise Set
Actual Time 6:23 AM CDT 7:48 PM CDT
Civil Twilight 5:56 AM CDT 8:15 PM CDT
Nautical Twilight 5:24 AM CDT 8:48 PM CDT
Astronomical Twilight 4:50 AM CDT 9:22 PM CDT
Moon 4:42 PM CDT (4/22) 4:13 AM CDT (4/22)
Length of Visible Light 14h 19m
Length of Day
13h 24m
Waxing Gibbous, 88% of the Moon is Illuminated
Apr 22
Waxing Gibbous
Apr 25
Full
May 2
Last Quarter
May 9
New
May 17
First Quarter

Hourly Weather History & Observations

Time (CDT) Temp. Windchill Dew Point Humidity Pressure Visibility Wind Dir Wind Speed Gust Speed Precip Events Conditions
12:53 AM 45.0 °F - 37.9 °F 76% 30.25 in 10.0 mi Calm Calm - N/A   Clear
1:53 AM 44.1 °F - 37.0 °F 76% 30.24 in 10.0 mi Calm Calm - N/A   Clear
2:53 AM 41.0 °F - 37.0 °F 86% 30.22 in 10.0 mi Calm Calm - N/A   Clear
3:53 AM 39.9 °F - 36.0 °F 86% 30.20 in 10.0 mi Calm Calm - N/A   Clear
4:53 AM 39.0 °F 36.8 °F 36.0 °F 89% 30.19 in 10.0 mi NE 3.5 mph - N/A   Clear
5:53 AM 37.9 °F - 35.1 °F 89% 30.19 in 10.0 mi Calm Calm - N/A   Clear
6:53 AM 39.0 °F - 35.1 °F 86% 30.20 in 10.0 mi Calm Calm - N/A   Clear
7:53 AM 48.9 °F - 36.0 °F 61% 30.19 in 10.0 mi East 5.8 mph - N/A   Clear
8:53 AM 54.0 °F - 36.0 °F 51% 30.18 in 10.0 mi ESE 8.1 mph - N/A   Clear
10:53 AM 62.1 °F - 36.0 °F 38% 30.17 in 10.0 mi SSE 9.2 mph - N/A   Clear
11:53 AM 64.9 °F - 33.1 °F 31% 30.14 in 10.0 mi SSE 12.7 mph - N/A   Clear
12:53 PM 66.0 °F - 34.0 °F 30% 30.12 in 10.0 mi SSE 10.4 mph - N/A   Clear
1:53 PM 68.0 °F - 35.1 °F 30% 30.09 in 10.0 mi SE 11.5 mph 19.6 mph N/A   Clear
2:53 PM 69.1 °F - 34.0 °F 27% 30.06 in 10.0 mi SE 11.5 mph 17.3 mph N/A   Clear
3:53 PM 68.0 °F - 30.9 °F 25% 30.04 in 10.0 mi South 13.8 mph - N/A   Clear
4:53 PM 66.9 °F - 35.1 °F 31% 30.01 in 10.0 mi SE 9.2 mph - N/A   Clear
5:53 PM 66.0 °F - 37.0 °F 34% 30.00 in 10.0 mi SSE 13.8 mph 17.3 mph N/A   Clear
6:53 PM 64.9 °F - 37.0 °F 36% 30.03 in 10.0 mi SSE 8.1 mph - N/A   Partly Cloudy
7:53 PM 63.0 °F - 39.9 °F 43% 30.00 in 10.0 mi SE 10.4 mph - N/A   Mostly Cloudy
8:53 PM 62.1 °F - 41.0 °F 46% 30.01 in 10.0 mi SSE 9.2 mph - N/A   Overcast
9:53 PM 61.0 °F - 41.0 °F 48% 30.03 in 10.0 mi SSE 6.9 mph - N/A   Clear
10:53 PM 57.9 °F - 42.1 °F 56% 30.03 in 10.0 mi Calm Calm - N/A   Clear
11:53 PM 55.9 °F - 43.0 °F 62% 30.02 in 10.0 mi SSE 4.6 mph - N/A   Clear